Jackpot

Texas Poker Multi Jackpot System

Kini Telah hadir Jackpot SUPER ROYAL FLUSH

Kini Telah hadir Jackpot 2000 (khusus table VIP keatas).

Ikutilah global jackpot yang tersedia di system kami, dengan system jackpot terbaru dan pertama di indonesia, anda dapat membeli jackpot dengan harga 100 rupiah saja dan menangkan hadiahnya hingga puluhan juta rupiah.

Jackpot bukanlah suatu keharusan untuk dibeli, namun kami memberikan suatu fitur tambahan untuk member tercinta dari www.mahadewapoker.com.

Terdapat tiga pilihan harga jackpot yang bisa anda beli yaitu :100,500,1000 dan 2000(khusus table VIP Keatas) rupiah.

Hadiah dari Multi jackpot system www.mahadewapoker.com

  1. full house x 10 harga jackpot yang anda beli.
      (contoh:anda membeli 1000 maka:1000 X10 = 10.000)
  2. four of kind x 250 harga jackpot yang anda beli
      (contoh:anda membeli 1000 maka:1000 X250 = 250.000)
  3. Straight flush x 1200
      (contoh:anda membeli 1000 maka:1000 X1200 = 1.200.000)
  4. Royal flush x 10000 harga jackpot yang anda beli
      (contoh:anda membeli 1000 maka:1000 X10000 = 10.000.000)
  5. SUPER ROYAL FLUSH x 30000 harga jackpot yang anda beli
      (contoh:anda membeli 1000 maka:1000 X30000 = 30.000.000)

Kondisi kartu

  1. full house adalah kondisi kartu dimana kartu anda dan kartu tengah dengan total 7 kartu bisa mendapatkan nilai 5 kartu dengan kombinasi 1 tris(three of kind) dan 1 pair, contoh 3 kartu 10 dan 2 kartu 5
  2. Four of kind adalah kondisi kartu dimana kartu anda dan kartu tengah dengan total 7 kartu bisa mendapatkan nilai 5 kartu dengan kombinasi 4 kartu yang sama jumlah dan 1 kartu apapun juga contoh anda mendapatkan 4 buah kartu angka 3 dan 1 kartu apapun.
  3. Staright flush adalah kondisi kartu dimana kartu anda dan kartu tengah dengan total 7 kartu bisa mendapatkan nilai 5 kartu dengan kombinasi seri / staright dengan kembang yang sama contoh : urutan kartu dari angka 5, 6, 7, 8 , 9 10 dengan kembang yg sama misalnya as hati
  4. Royal flush adalah kondisi kartu dimana kartu anda dan kartu tengah dengan total 7 kartu bisa mendapatkan nilai 5 kartu dengan kombinasi seri / staright dengan kembang yang sama tetapi kartu tersebut haruslah dimulai dari 10. contoh 10, Queen, Jack, King dan aces dengan kembang yang sama
  5. Super Royal flush adalah kondisi kartu dimana Kedua kartu anda digabung dengan 3 kartu pertama meja haruslah royal flush. contoh kartu anda 10,Queen kembang sama dan 3 kartu pertama meja adalah Jack, King dan aces dengan kembang yang sama

Demikian adalah penjelasan dari Multi Jackpot www.mahadewapoker.com terima kasih dan selamat bermain salam hoki dari kami

Texas Poker Jackpot Winner

TOP SUPER ROYAL FLUSH
No.TanggalNamaPriceWin
117/07 14:30RAIISS_AASuper Royal flush6,000,000
217/07 14:23LB995745Super Royal flush1,500,000
317/07 11:25YUS156Super Royal flush6,000,000
417/07 10:15INDRA146Super Royal flush1,500,000
517/07 07:55MAMSKI12Super Royal flush30,000,000
TOP ROYAL FLUSH
No.TanggalNamaPriceWin
117/07 18:44DIANBD49Royal flush5,000,000
217/07 18:42RUYUIRoyal flush2,000,000
317/07 18:39BAHO_79Royal flush5,000,000
417/07 18:29VERAND44Royal flush10,000,000
517/07 17:36DWBTANTH25Royal flush2,000,000
TOP STRAIGHT FLUSH
No.TanggalNamaPriceWin
117/07 18:44D4LLEE777Straight Flush600,000
217/07 18:42SBX9999Straight Flush1,200,000
317/07 18:42WEKA234Straight Flush120,000
417/07 18:42LULU912Straight Flush240,000
517/07 18:42MWAHYU77Straight Flush600,000
LATEST JACKPOT
No.TanggalNamaPriceWin
117/07 18:45KIM75Full House5,000
217/07 18:45WDPDDVISYMFull House2,000
317/07 18:45BAB1_KAUFull House5,000
417/07 18:45ROBOTIC93Full House1,000
517/07 18:45LOCALHERO0Full House10,000
617/07 18:45KEYCUTE99Full House5,000
717/07 18:45JAZILAH57Full House2,000
817/07 18:45XAFBKP9WY8Full House2,000
917/07 18:45CHORO55Full House10,000
1017/07 18:45HA4SFull House2,000
1117/07 18:45AIMY14Full House1,000
1217/07 18:45PKR_SKOPFull House2,000
1317/07 18:45THEZAM43Full House2,000
1417/07 18:45FRANSOKFull House5,000
1517/07 18:45M0SLEFull House2,000
1617/07 18:45NOPAN01Full House5,000
1717/07 18:45IDK883425Full House1,000
1817/07 18:45ASYIFAHERLFull House1,000
1917/07 18:45AWANADIRA9Full House2,000
2017/07 18:45SYU74Full House1,000
2117/07 18:45C44ROTTEN77616Full House2,000
2217/07 18:45N19V92LFull House500
2317/07 18:45JRAGAN81Full House10,000
2417/07 18:45ARAH02Full House2,000
2517/07 18:45AAMUELQQFour Of A Kind250,000
2617/07 18:45TEMPEE13Full House10,000
2717/07 18:45ELPAMAS606Full House2,000
2817/07 18:44OKER83Full House1,000
2917/07 18:44IYALAH08Full House5,000
3017/07 18:44D4LLEE777Straight Flush600,000
3117/07 18:44K1W1L99Full House2,000
3217/07 18:44JEMIN99Full House2,000
3317/07 18:44SULAIMANYFull House20,000
3417/07 18:44THIAN16Full House2,000
3517/07 18:44JM59TX8AVQFour Of A Kind500,000
3617/07 18:44PUSEH1539Full House2,000
3717/07 18:44RINGTUNFull House2,000
3817/07 18:44JAMBRET60Full House500
3917/07 18:44D9015RRFour Of A Kind25,000
4017/07 18:44KADOKEPEFull House10,000
4117/07 18:44AQUA227Full House2,000
4217/07 18:44DHIANCUXFull House1,000
4317/07 18:44DIANBD49Royal flush5,000,000
4417/07 18:44BINTANGKERFull House5,000
4517/07 18:44ASKOBAR11Full House2,000
4617/07 18:44SHEZAN20Full House5,000
4717/07 18:44SADE0328Full House2,000
4817/07 18:44BIINGGO88Full House5,000
4917/07 18:44RZ354354Full House5,000
5017/07 18:44WARDI1928Full House5,000

Domino Multi Jackpot System

Ikutilah global jackpot yang tersedia di system kami, dengan system jackpot terbaru dan pertama di indonesia, anda dapat membeli jackpot dengan harga 100 rupiah saja dan menangkan hadiahnya hingga puluhan juta rupiah.

Jackpot bukanlah suatu keharusan untuk dibeli, namun kami memberikan suatu fitur tambahan untuk member tercinta dari www.mahadewapoker.com.

Terdapat tiga pilihan harga jackpot yang bisa anda beli yaitu :100,500 dan 1000 rupiah.

Hadiah dari Multi jackpot system www.mahadewapoker.com

  1. Murni Kecil x 50 harga jackpot yang anda beli.
      (contoh:anda membeli 1000 maka:1000 X 50 = 50.000)
  2. Murni Besar x 50 harga jackpot yang anda beli
      (contoh:anda membeli 1000 maka:1000 X 50 = 50.000)
  3. BALAK x 100 harga jackpot yang anda beli
      (contoh:anda membeli 1000 maka:1000 X 100 = 100.000)
  4. ENAM DEWA x 6666 harga jackpot yang anda beli
      (contoh:anda membeli 1000 maka:1000 X 6666 = 6.666.000)

Demikian adalah penjelasan dari Multi Jackpot www.mahadewapoker.com terima kasih dan selamat bermain salam hoki dari kami

Domino Jackpot Winner

TOP ENAM DEWA
No.TanggalNamaPriceWin
117/07 18:28F1GUmurni enam6,666,000
217/07 17:38CIHUYYY_9murni enam666,600
317/07 17:08TITAN25murni enam3,333,000
417/07 16:28V7MPGQT64Zmurni enam3,333,000
517/07 16:20HALLU20murni enam666,600
TOP BALAK
No.TanggalNamaPriceWin
117/07 18:41JAILQQbalak100,000
217/07 18:36TONO757balak50,000
317/07 18:33MAKKARAENGbalak100,000
417/07 18:33SJPOKER035balak10,000
517/07 18:32BRONEXbalak100,000
LATEST JACKPOT
No.TanggalNamaPriceWin
117/07 18:44BTIKWINDA99murni kecil50,000
217/07 18:44NAMEKEmurni kecil25,000
317/07 18:44APIT10murni kecil50,000
417/07 18:43BOTAK00582murni besar25,000
517/07 18:43BAGASROCKmurni besar50,000
617/07 18:43KAPAKKlucky9925,000
717/07 18:43WAHAB99VINmurni besar25,000
817/07 18:43PLEWWEKmurni kecil50,000
917/07 18:42OKSANHARImurni kecil25,000
1017/07 18:42PENGEK46murni kecil5,000
1117/07 18:42TRIDEDESmurni besar50,000
1217/07 18:41YUSRA229murni besar50,000
1317/07 18:41BAGASROCKmurni kecil50,000
1417/07 18:41JAILQQbalak100,000
1517/07 18:40EFFE033murni besar25,000
1617/07 18:39SARANEmurni kecil5,000
1717/07 18:38CAHIL88murni besar50,000
1817/07 18:38LOZZA13murni besar5,000
1917/07 18:37TASELA999murni besar5,000
2017/07 18:37ANGOPAmurni besar25,000
2117/07 18:37HEART303murni besar25,000
2217/07 18:37ENASANmurni besar50,000
2317/07 18:36SASUKECIHAmurni besar25,000
2417/07 18:36TONO757balak50,000
2517/07 18:36UNTUNGBGT9murni besar50,000
2617/07 18:36SASWADIPRImurni besar50,000
2717/07 18:36BLAWUKmurni kecil50,000
2817/07 18:35PAKLEKKUmurni besar25,000
2917/07 18:35LABOKITAmurni kecil50,000
3017/07 18:35JINJUNKmurni besar50,000
3117/07 18:35STYLE930murni besar50,000
3217/07 18:34LOZZA13murni kecil5,000
3317/07 18:34SERSImurni besar50,000
3417/07 18:34CAHIL88murni kecil50,000
3517/07 18:34ONEDIWTE6Fmurni besar50,000
3617/07 18:34N4RRUT0murni kecil50,000
3717/07 18:33BU59XIYZFMmurni kecil50,000
3817/07 18:33DWBTILL90murni besar25,000
3917/07 18:33MAKKARAENGbalak100,000
4017/07 18:33SJPOKER035balak10,000
4117/07 18:32BRONEXbalak100,000
4217/07 18:32STIRJUGAmurni kecil50,000
4317/07 18:32CUYUNPHA36murni besar50,000
4417/07 18:32PENGEK46balak10,000
4517/07 18:31NASMO1998murni kecil25,000
4617/07 18:31LAYUR347murni besar25,000
4717/07 18:31SATGASMKmurni besar50,000
4817/07 18:30FORGOTTmurni besar50,000
4917/07 18:30CB77LUSMASlucky992,500
5017/07 18:30AZ25murni besar25,000

Ceme Multi Jackpot System

Jackpot dilihat dari gabungan kartu pemain dengan kartu bandar. Bandar harus membeli jackpot sebanyak jumlah player yang sedang duduk. Sebagai contoh bila terdapat 3 pemain duduk bermain, dan bandar memutuskan untuk membeli jackpot Rp 1.000, maka pada periode tersebut bandar akan membeli jackpot sebanyak 3xRp1.000 = Rp3.000.

Jackpot bukanlah suatu keharusan untuk dibeli, namun kami memberikan suatu fitur tambahan untuk member tercinta dari www.mahadewapoker.com.

Terdapat tiga pilihan harga jackpot yang bisa anda beli yaitu :100,500 dan 1000 rupiah.

Hadiah dari Multi jackpot system www.mahadewapoker.com

  1. Murni Kecil x 50 harga jackpot yang anda beli.
      (contoh:anda membeli 1000 maka:1000 X 50 = 50.000)
  2. Murni Besar x 50 harga jackpot yang anda beli
      (contoh:anda membeli 1000 maka:1000 X 50 = 50.000)
  3. BALAK x 200 harga jackpot yang anda beli
      (contoh:anda membeli 1000 maka:1000 X 200 = 200.000)
  4. ENAM DEWA x 6666 harga jackpot yang anda beli
      (contoh:anda membeli 1000 maka:1000 X 6666 = 6.666.000)

Demikian adalah penjelasan dari Multi Jackpot www.mahadewapoker.com terima kasih dan selamat bermain salam hoki dari kami

Ceme Jackpot Winner

TOP ENAM DEWA
No.TanggalNamaPriceWin
117/07 18:41FAS1911murni enam6,666,000
217/07 18:36ALBINO05murni enam6,666,000
317/07 18:36SIGITO32murni enam3,333,000
417/07 18:36PELOR110murni enam3,333,000
517/07 18:33MIHAR123murni enam6,666,000
TOP BALAK
No.TanggalNamaPriceWin
117/07 18:44K703F3VVA2balak100,000
217/07 18:44LANTAKJU77balak200,000
317/07 18:44BC3C0467balak100,000
417/07 18:44AHRSSbalak200,000
517/07 18:43MINANG95balak200,000
LATEST JACKPOT
No.TanggalNamaPriceWin
117/07 18:45ZHAAFIRAH_murni besar25,000
217/07 18:45IRNI78murni kecil50,000
317/07 18:45KILLER0000murni besar25,000
417/07 18:44K703F3VVA2balak100,000
517/07 18:44MZULLFIKARmurni besar25,000
617/07 18:44YOIBROW89murni kecil50,000
717/07 18:44LANTAKJU77balak200,000
817/07 18:44BC3C0467balak100,000
917/07 18:44TOMJERmurni kecil50,000
1017/07 18:44MANPARE7murni besar50,000
1117/07 18:44ZLOW95murni besar25,000
1217/07 18:44AKBAR5566murni besar50,000
1317/07 18:44AHRSSbalak200,000
1417/07 18:44JECKPOT67murni kecil50,000
1517/07 18:44EMERAL46murni kecil50,000
1617/07 18:44LAMDHA29murni besar50,000
1717/07 18:44ELCCmurni besar50,000
1817/07 18:44FAISAL1112murni kecil25,000
1917/07 18:44BANDY29murni kecil50,000
2017/07 18:44FAISAL1112murni kecil25,000
2117/07 18:44LBUOKZJVZ0murni kecil25,000
2217/07 18:43MUSTIKA66murni kecil50,000
2317/07 18:43MINANG95balak200,000
2417/07 18:43BP888117murni kecil50,000
2517/07 18:43AMRICA88murni kecil50,000
2617/07 18:43JECKPOT67balak200,000
2717/07 18:43EMERAL46balak200,000
2817/07 18:43B40OUHANKOI761balak20,000
2917/07 18:43GOGON028murni kecil25,000
3017/07 18:42FAUD99murni kecil25,000
3117/07 18:42WATU2608murni kecil5,000
3217/07 18:42ENCISLOmurni besar50,000
3317/07 18:42ENCISLOmurni besar50,000
3417/07 18:42ISKANDARIAmurni besar5,000
3517/07 18:42IDK898418murni besar5,000
3617/07 18:42IYAN906murni besar25,000
3717/07 18:42SARIPONG21murni besar5,000
3817/07 18:42MAUREN1206murni kecil50,000
3917/07 18:42ZIDDmurni besar50,000
4017/07 18:42AKBAR5566murni besar25,000
4117/07 18:42RENDET87murni besar5,000
4217/07 18:42JAMET951murni kecil50,000
4317/07 18:42KENZI32balak200,000
4417/07 18:42RIFKYY12balak20,000
4517/07 18:42MANPARE7murni kecil50,000
4617/07 18:42BP888117balak200,000
4717/07 18:42D88HDbalak200,000
4817/07 18:41M3TROTVmurni besar25,000
4917/07 18:41AGUNGJAMZmurni besar50,000
5017/07 18:41ACHER90murni kecil50,000